EW7835 Weather Reports


Display with metric or nautical units.
time (UTC)temp
F
wind
direction
speed
MPH
gust
MPH
rain 1hr
in
rain 24hr
in
rain mn
in
humidity
%
barometer
mb
20260905084527 61 0.0 0.0 0.00 0.00 0.00 1 1006.1
20260905083054 61 0.0 0.0 0.00 0.00 0.00 1 1006.2
20260905081549 61 0.0 0.0 0.00 0.00 0.00 1 1006.2
20260905080043 62 0.0 0.0 0.00 0.00 0.00 1 1006.3
20260905074543 62 0.0 0.0 0.00 0.00 0.00 1 1006.4
20260905073039 62 0.0 0.0 0.00 0.00 0.00 1 1006.3
20260905071530 62 0.0 0.0 0.00 0.00 0.00 1 1006.4
20260905070025 63 0.0 0.0 0.00 0.00 0.00 1 1006.5
20260905064522 62 0.0 0.0 0.00 0.00 0.00 1 1006.6
20260905063017 62 0.0 0.0 0.00 0.00 0.00 1 1006.7
20260905061519 62 0.0 0.0 0.00 0.00 0.00 1 1006.9
20260905060037 63 0.0 0.0 0.00 0.00 0.00 1 1007.0
20260905054536 63 0.0 0.0 0.00 0.00 0.00 1 1006.8
20260905053025 64 0.0 0.0 0.00 0.00 0.00 1 1006.8
20260905051522 64 0.0 0.0 0.00 0.00 0.00 1 1007.0
20260905050016 65 0.0 0.0 0.00 0.00 0.00 2 1007.2
20260905044512 66 0.0 0.0 0.00 0.00 0.00 13 1007.1
20260905043005 66 0.0 0.0 0.00 0.00 0.00 18 1007.1
20260905041501 66 0.0 0.0 0.00 0.00 0.00 17 1007.1
20260905040056 66 0.0 0.0 0.00 0.00 0.00 17 1007.0
20260905034607 66 0.0 0.0 0.00 0.00 0.00 15 1007.1
20260905033019 66 0.0 0.0 0.00 0.00 0.00 13 1007.0
20260905031516 66 0.0 0.0 0.00 0.00 0.00 8 1007.1
20260905030013 65 0.0 0.0 0.00 0.00 0.00 7 1007.1
20260905024511 65 0.0 0.0 0.00 0.00 0.00 7 1007.1
20260905023009 66 0.0 0.0 0.00 0.00 0.00 12 1007.0
20260905021512 66 0.0 0.0 0.00 0.00 0.00 20 1007.2
20260905020005 66 0.0 0.0 0.00 0.00 0.00 16 1007.2
20260905014505 65 0.0 0.0 0.00 0.00 0.00 14 1007.5
20260905013003 66 0.0 0.0 0.00 0.00 0.00 21 1007.4
20260905011559 67 0.0 0.0 0.00 0.00 0.00 28 1007.4
20260905010100 67 0.0 0.0 0.00 0.00 0.00 30 1007.3
20260905004633 68 0.0 0.0 0.00 0.00 0.00 36 1007.3
20260905003049 68 0.0 0.0 0.00 0.00 0.00 41 1007.2
20260905001556 69 0.0 0.0 0.00 0.00 0.00 45 1007.0
20260905000050 69 0.0 0.0 0.00 0.00 0.00 47 1007.0
20260904234542 70 0.0 0.0 0.00 0.00 0.00 48 1006.9
20260904233040 71 0.0 0.0 0.00 0.00 0.00 48 1006.6
20260904231537 71 0.0 0.0 0.00 0.00 0.00 51 1006.5
20260904230035 72 0.0 0.0 0.00 0.00 0.00 52 1006.5
20260904224529 73 0.0 0.0 0.00 0.00 0.00 53 1006.5
20260904223028 74 0.0 0.0 0.00 0.00 0.00 53 1006.1
20260904221526 75 0.0 0.0 0.00 0.00 0.00 53 1006.0
20260904220026 76 0.0 0.0 0.00 0.00 0.00 54 1006.0
20260904214522 76 0.0 0.0 0.00 0.00 0.00 53 1006.0
20260904213022 76 0.0 0.0 0.00 0.00 0.00 53 1006.0
20260904211519 77 0.0 0.0 0.00 0.00 0.00 53 1005.9
20260904210017 76 0.0 0.0 0.00 0.00 0.00 54 1006.1
20260904204516 78 0.0 0.0 0.00 0.00 0.00 52 1006.2
20260904203013 78 0.0 0.0 0.00 0.00 0.00 51 1006.3
20260904201505 77 0.0 0.0 0.00 0.00 0.00 50 1006.2
20260904200002 78 0.0 0.0 0.00 0.00 0.00 51 1006.3
20260904194533 78 0.0 0.0 0.00 0.00 0.00 51 1006.3
20260904193029 78 0.0 0.0 0.00 0.00 0.00 51 1006.3
20260904191522 77 0.0 0.0 0.00 0.00 0.00 50 1006.4
20260904190018 78 0.0 0.0 0.00 0.00 0.00 48 1006.5
20260904184521 78 0.0 0.0 0.00 0.00 0.00 51 1006.5
20260904183009 78 0.0 0.0 0.00 0.00 0.00 50 1006.7
20260904181508 77 0.0 0.0 0.00 0.00 0.00 51 1006.9
20260904180059 77 0.0 0.0 0.00 0.00 0.00 49 1006.9
20260904174555 77 0.0 0.0 0.00 0.00 0.00 51 1007.1
20260904173049 77 0.0 0.0 0.00 0.00 0.00 51 1007.2
20260904171610 75 0.0 0.0 0.00 0.00 0.00 52 1007.3
20260904170038 76 0.0 0.0 0.00 0.00 0.00 51 1007.1
20260904164534 75 0.0 0.0 0.00 0.00 0.00 51 1007.2
20260904163029 75 0.0 0.0 0.00 0.00 0.00 51 1007.3
20260904161524 75 0.0 0.0 0.00 0.00 0.00 50 1007.6
20260904160019 74 0.0 0.0 0.00 0.00 0.00 51 1007.7
20260904154531 75 0.0 0.0 0.00 0.00 0.00 49 1007.8
20260904153010 74 0.0 0.0 0.00 0.00 0.00 47 1008.0
20260904151505 73 0.0 0.0 0.00 0.00 0.00 32 1008.0
20260904150004 73 0.0 0.0 0.00 0.00 0.00 26 1008.3
20260904144504 73 0.0 0.0 0.00 0.00 0.00 14 1008.2
20260904143008 72 0.0 0.0 0.00 0.00 0.00 3 1008.3
20260904141502 70 0.0 0.0 0.00 0.00 0.00 1 1008.4
20260904140001 69 0.0 0.0 0.00 0.00 0.00 1 1008.2
20260904134604 68 0.0 0.0 0.00 0.00 0.00 1 1008.2
20260904133115 67 0.0 0.0 0.00 0.00 0.00 1 1008.3
20260904131601 66 0.0 0.0 0.00 0.00 0.00 1 1008.1
20260904130057 66 0.0 0.0 0.00 0.00 0.00 1 1008.3
20260904124602 65 0.0 0.0 0.00 0.00 0.00 1 1008.2
20260904123058 65 0.0 0.0 0.00 0.00 0.00 1 1008.3
20260904121554 64 0.0 0.0 0.00 0.00 0.00 1 1008.4
20260904120059 63 0.0 0.0 0.00 0.00 0.00 1 1008.4
20260904114600 62 0.0 0.0 0.00 0.00 0.00 1 1008.4
20260904113052 61 0.0 0.0 0.00 0.00 0.00 1 1008.2
20260904111554 61 0.0 0.0 0.00 0.00 0.00 1 1007.8
20260904110019 61 0.0 0.0 0.00 0.00 0.00 1 1007.8
20260904104517 60 0.0 0.0 0.00 0.00 0.00 1 1007.7
20260904103009 60 0.0 0.0 0.00 0.00 0.00 1 1007.6
20260904101505 60 0.0 0.0 0.00 0.00 0.00 1 1007.3
20260904100117 61 0.0 0.0 0.00 0.00 0.00 1 1007.1
20260904094605 60 0.0 0.0 0.00 0.00 0.00 1 1007.1
20260904093048 60 0.0 0.0 0.00 0.00 0.00 1 1006.9
20260904091545 60 0.0 0.0 0.00 0.00 0.00 1 1006.7
20260904090040 61 0.0 0.0 0.00 0.00 0.00 1 1006.7